Location: Unspecified
(41.1850°N, 73.2650°W)
Time: 02:20:49
(UTC+00:00)

SL-08 R/B - Pass Details

Date: 19 March 2026
Orbit: 946 x 992 km, 83.0° (Epoch: 13 April)

Event Time Altitude Azimuth Distance (km) Brightness Sun altitude
Exits shadow 02:08:14 17° 224° (SW) 2,219 6.4 -33.8°
Maximum altitude 02:12:27 38° 284° (WNW) 1,416 5.7 -34.4°
Drops below altitude 10° 02:18:05 10° 352° (N) 2,675 7.2 -35.3°
Sets 02:20:48 0° 0° (N) 3,625 7.9 -35.7°
